{"data":{"norad_id":52113,"epoch":"2026-09-19T15:43:58.602432Z","epoch_age_seconds":128840,"freshness":"FRESH","line1":"1 52113U 22029AB  26262.65553938  .00000574  00000+0  28125-4 0  9996","line2":"2 52113  53.1607 273.3187 0001247  84.1179 275.9966 15.34390773250273","mean_motion":15.34390773,"eccentricity":0.0001247,"inclination_deg":53.1607,"raan_deg":273.3187,"arg_perigee_deg":84.1179,"mean_anomaly_deg":275.9966,"bstar":2.8125e-5,"rev_number":25027,"period_min":93.848322431225,"perigee_km":461.87760873522,"apogee_km":463.58372113085,"semimajor_km":6840.867664933,"source":"CELESTRAK","updated_at":"2026-09-20T09:00:39.988010Z"}}